Regional Weather Roundup
Issued by NWS

Home | Current Version | Previous Version | Graphics & Text | Print | Product List | Glossary On
Versions: 1 2 3 4 5 6 7 8 9 10 11 12 13 14 15 16 17 18 19 20 21 22 23 24 25 26 27 28 29 30 31 32 33 34 35 36 37 38 39 40 41 42 43 44 45 46 47 48 49 50
000
ASUS43 KDTX 060101
RWRMI
MICHIGAN HOURLY REGIONAL WEATHER ROUNDUP
NATIONAL WEATHER SERVICE DETROIT/PONTIAC MI
800 PM EST FRI FEB 05 2016

NOTE: "FAIR" INDICATES FEW OR NO CLOUDS BELOW 12,000 FEET WITH NO
SIGNIFICANT WEATHER AND/OR OBSTRUCTION TO VISIBILITY.

MIZ047>049-052>055-059>063-066>070-074>076-081>083-060200-
SOUTHEAST LOWER MICHIGAN

CITY           SKY/WX    TMP DP  RH WIND       PRES   REMARKS
ADRIAN         CLOUDY    41  24  51 W5        30.31S
ALMA           CLOUDY    30  28  94 W3        30.30S
ANN ARBOR      MOCLDY    32  27  81 W7        30.29F WCI  26
BAD AXE        FLURRIES  31  29  92 SW3       30.29S
CARO           LGT SNOW  31  29  95 W3        30.28S
DETROIT CITY   CLOUDY    35  23  61 S5        30.29F WCI  31
DETROIT        CLOUDY    36  23  59 SW12      30.30F WCI  28
FLINT          FLURRIES  33  26  75 W7        30.29F WCI  27
GROSSE ILE     CLOUDY    37  25  60 SW5       30.29F WCI  34
HILLSDALE      FLURRIES  30  25  83 W6        30.28F WCI  24
HOWELL         CLOUDY    31  29  90 SW3       30.28S

CITY           SKY/WX    TMP DP  RH WIND       PRES   REMARKS
JACKSON        CLOUDY    30  24  78 W9        30.29F WCI  22
LAMBERTVILLE   CLOUDY    33  26  73 W5        30.32S WCI  29
LANSING        CLOUDY    30  26  85 W7        30.30F WCI  23
LAPEER         LGT SNOW  31  29  91 CALM      30.28F
MASON          LGT SNOW  31  28  90 W5        30.29S WCI  26
MONROE         CLOUDY    35  26  69 W6        30.30F WCI  30
MT. CLEMENS    CLOUDY    33  27  80 S8        30.27F WCI  25
PONTIAC        LGT SNOW  31  28  89 W8        30.27F FOG     WCI  23
PORT HOPE        N/A     30  28  92 SW3       30.27S
PORT HURON     CLOUDY    32  25  74 S3        30.29F
TRI CITIES     CLOUDY    29  26  89 SW6       30.30S FOG     WCI  23
MIDLAND        CLOUDY    30  28  93 CALM      30.28S
TROY           CLOUDY    37  22  55 SW6       30.30S WCI  32
SAGINAW HB     LGT SNOW  32  30  93 SW5       30.29S WCI  27
$$
MIZ043>046-050>051-056>058-064>065-071>073-077>080-060200-
SOUTHWEST LOWER MICHIGAN

CITY           SKY/WX    TMP DP  RH WIND       PRES   REMARKS
BATTLE CREEK   PTCLDY    29  22  75 W10       30.32S WCI  20
BENTON HARBOR  CLOUDY    30  22  72 W3        30.35F
BIG RAPIDS     CLOUDY    25  17  69 W3        30.28F
COLDWATER      FLURRIES  30  28  92 W7        30.31S WCI  23
FREMONT        FAIR      24  16  70 W5        30.32S WCI  19
HOLLAND        CLOUDY    28  20  71 W3        30.34F
GRAND RAPIDS   MOCLDY    27  20  75 W7        30.32S WCI  19
IONIA          FAIR      27  22  82 W9        30.30R WCI  18
KALAMAZOO      CLOUDY    29  21  72 W6        30.33S WCI  23
LUDINGTON      CLOUDY    26  17  69 CALM      30.32F
MARSHALL       FLURRIES  30  27  88 W6        30.30S WCI  24
MOUNT PLEASANT CLOUDY    31  21  67 W3        30.28S
MUSKEGON       MOCLDY    28  16  60 NW8       30.34S WCI  20
SOUTH HAVEN    CLOUDY    30  23  74 W3        30.35S
$$
MIZ016>042-060200-
NORTHERN LOWER MICHIGAN

CITY           SKY/WX    TMP DP  RH WIND       PRES   REMARKS
ALPENA         CLOUDY    17  14  88 CALM      30.27S
BEAVER ISLAND  PTCLDY    26  15  65 SW5       30.26F WCI  20
BELLAIRE       CLOUDY    21  18  88 CALM      30.29S
CADILLAC       CLOUDY    15  13  92 CALM      30.25S
CHARLEVOIX     CLOUDY    28  18  66 SW5       30.30S WCI  22
FRANKFORT      PTCLDY    26  17  69 W3        30.30S
GAYLORD        CLOUDY    20  14  77 CALM      30.23F
GRAYLING       CLOUDY    14  12  92 CALM      30.26S
HARBOR SPRINGS CLOUDY    28  18  66 W7        30.26S WCI  20
HOUGHTON LAKE  CLOUDY    19  16  88 W3        30.26S
MANISTEE       MOCLDY    27  16  63 CALM      30.31F
OSCODA         FLURRIES  28  24  84 NW3       30.27S
PELLSTON       CLOUDY    15  11  83 CALM      30.27S
ROGERS CITY    CLEAR     19  11  73 SW3       30.28R
TRAVERSE CITY  CLOUDY    26  15  63 SW3       30.29S
$$
MIZ007>008-015-060200-
EASTERN UPPER MICHIGAN

CITY           SKY/WX    TMP DP  RH WIND       PRES   REMARKS
KINROSS        CLOUDY    21  19  93 CALM      30.24S
MACKINAC ISLAN CLOUDY    25  20  81 W6        30.25S WCI  18
NEWBERRY       MOCLDY    14  13  92 S3        30.22F
S. S. MARIE    CLOUDY    25  13  60 W6        30.23S WCI  18
$$
MIZ004>006-011>014-085-060200-
CENTRAL UPPER MICHIGAN

CITY           SKY/WX    TMP DP  RH WIND       PRES   REMARKS
MANISTIQUE     CLEAR     24  16  74 SW5       30.24F WCI  18
ESCANABA       CLOUDY    25  14  63 SW8       30.25F WCI  16
MENOMINEE      MOCLDY    19  10  68 SW6       30.27S WCI  11
SAWYER-GWINN   CLOUDY    21  12  68 S9        30.17F WCI  11
$$
MIZ001>003-009>011-084-060200-
WESTERN UPPER MICHIGAN

CITY           SKY/WX    TMP DP  RH WIND       PRES   REMARKS
IRON MOUNTAIN  CLOUDY    25   9  50 S6        30.18F WCI  18
HOUGHTON       CLOUDY    23  12  62 S9        30.09F WCI  13
COPPER HARBOR    N/A     26  15  63 W8G18     30.11F WCI  18
IRONWOOD       CLOUDY    25  10  54 SW13G18   30.08F WCI  13
$$

ABBREVIATIONS USED IN REMARKS
   TC - TEMPERATURE IN CELSIUS
  WCI - WIND CHILL INDEX
   HX - HEAT INDEX
  VSB - VISIBILITY





USA.gov is the U.S. government's official web portal to all federal, state and local government web resources and services.